Previsão horária em Allieres

Hoje, 16 Janeiro, Sábado

Tempo Temperatura Precipitação Vento Pressão Humidade
00:00 +1°C° 0 mm 3 m/s 723 mmHg 95%
01:00 +2°C° 0.1 mm 2 m/s 723 mmHg 94%
02:00 +1°C° 0.1 mm 2 m/s 723 mmHg 94%
03:00 +1°C° 0.1 mm 2 m/s 723 mmHg 93%
04:00 -1°C° 0 mm 2 m/s 723 mmHg 90%
05:00 -1°C° 0 mm 2 m/s 723 mmHg 87%
06:00 0°C° 0 mm 1 m/s 724 mmHg 86%
07:00 -1°C° 0 mm 2 m/s 724 mmHg 82%
08:00 +1°C° 0 mm 2 m/s 724 mmHg 79%
09:00 +2°C° 0 mm 2 m/s 724 mmHg 75%
10:00 +3°C° 0 mm 2 m/s 724 mmHg 74%
11:00 +4°C° 0 mm 2 m/s 724 mmHg 72%
12:00 +6°C° 0 mm 2 m/s 724 mmHg 71%
13:00 +6°C° 0 mm 2 m/s 724 mmHg 73%
14:00 +6°C° 0 mm 2 m/s 723 mmHg 74%
15:00 +6°C° 0 mm 2 m/s 723 mmHg 76%
16:00 +5°C° 0 mm 2 m/s 723 mmHg 77%
17:00 +5°C° 0 mm 1 m/s 723 mmHg 79%
18:00 +5°C° 0 mm 1 m/s 723 mmHg 80%
19:00 +5°C° 0 mm 1 m/s 724 mmHg 80%
20:00 +5°C° 0 mm 1 m/s 724 mmHg 80%
21:00 +5°C° 0 mm 1 m/s 724 mmHg 80%
22:00 +6°C° 0 mm 1 m/s 724 mmHg 78%
23:00 +5°C° 0 mm 2 m/s 724 mmHg 76%

Amanhã, 17 Janeiro, Domingo

Tempo Temperatura Precipitação Vento Pressão Humidade
00:00 +5°C° 0 mm 2 m/s 723 mmHg 74%
01:00 +5°C° 0 mm 2 m/s 723 mmHg 73%
02:00 +5°C° 0 mm 3 m/s 722 mmHg 72%
03:00 +5°C° 0 mm 3 m/s 722 mmHg 71%
04:00 +5°C° 0.1 mm 3 m/s 722 mmHg 75%
05:00 +5°C° 0.1 mm 4 m/s 722 mmHg 79%
06:00 +6°C° 0.1 mm 4 m/s 722 mmHg 83%
07:00 +6°C° 0.7 mm 4 m/s 722 mmHg 86%
08:00 +6°C° 0.7 mm 4 m/s 722 mmHg 90%
09:00 +6°C° 0.7 mm 4 m/s 722 mmHg 93%
10:00 +7°C° 0.7 mm 3 m/s 722 mmHg 94%
11:00 +7°C° 0.7 mm 3 m/s 722 mmHg 95%
12:00 +7°C° 0.7 mm 3 m/s 722 mmHg 96%
13:00 +7°C° 0.4 mm 3 m/s 722 mmHg 94%
14:00 +7°C° 0.4 mm 3 m/s 722 mmHg 93%
15:00 +7°C° 0.4 mm 3 m/s 722 mmHg 91%
16:00 +5°C° 0.1 mm 3 m/s 722 mmHg 92%
17:00 +6°C° 0.1 mm 2 m/s 723 mmHg 94%
18:00 +5°C° 0.1 mm 2 m/s 724 mmHg 96%
19:00 +5°C° 0 mm 2 m/s 724 mmHg 95%
20:00 +5°C° 0 mm 1 m/s 724 mmHg 95%
21:00 +5°C° 0 mm 1 m/s 724 mmHg 95%
22:00 +5°C° 0 mm 1 m/s 725 mmHg 92%
23:00 +4°C° 0 mm 1 m/s 725 mmHg 89%

Depois de amanhã, 18 Janeiro, Segunda-feira

Tempo Temperatura Precipitação Vento Pressão Humidade
00:00 +4°C° 0 mm 1 m/s 725 mmHg 86%
01:00 +3°C° 0 mm 1 m/s 725 mmHg 83%
02:00 +3°C° 0 mm 1 m/s 724 mmHg 81%
03:00 +3°C° 0 mm 1 m/s 724 mmHg 79%
04:00 +2°C° 0 mm 1 m/s 724 mmHg 78%
05:00 +2°C° 0 mm 1 m/s 724 mmHg 77%
06:00 +2°C° 0 mm 1 m/s 724 mmHg 76%
07:00 +2°C° 0 mm 1 m/s 724 mmHg 75%
08:00 +3°C° 0 mm 1 m/s 724 mmHg 74%
09:00 +3°C° 0 mm 0 m/s 725 mmHg 73%
10:00 +5°C° 0 mm 0 m/s 724 mmHg 72%
11:00 +7°C° 0 mm 1 m/s 724 mmHg 72%
12:00 +8°C° 0 mm 1 m/s 724 mmHg 72%
13:00 +7°C° 0 mm 0 m/s 724 mmHg 72%
14:00 +7°C° 0 mm 0 m/s 723 mmHg 72%
15:00 +7°C° 0 mm 0 m/s 723 mmHg 72%
16:00 +7°C° 0 mm 1 m/s 723 mmHg 73%
17:00 +5°C° 0 mm 1 m/s 723 mmHg 74%
18:00 +3°C° 0 mm 1 m/s 723 mmHg 75%
19:00 +3°C° 0 mm 1 m/s 723 mmHg 72%
20:00 +2°C° 0 mm 2 m/s 723 mmHg 70%
21:00 +2°C° 0 mm 2 m/s 723 mmHg 67%
22:00 +2°C° 0 mm 2 m/s 723 mmHg 67%
23:00 +2°C° 0 mm 2 m/s 723 mmHg 66%

19 Janeiro, Terça-feira

Tempo Temperatura Precipitação Vento Pressão Humidade
00:00 +2°C° 0 mm 2 m/s 723 mmHg 66%
01:00 +2°C° 0 mm 2 m/s 722 mmHg 65%
02:00 +2°C° 0 mm 2 m/s 722 mmHg 64%
03:00 +1°C° 0 mm 2 m/s 721 mmHg 63%
04:00 +1°C° 0 mm 2 m/s 721 mmHg 62%
05:00 +2°C° 0 mm 2 m/s 721 mmHg 61%
06:00 +2°C° 0 mm 2 m/s 721 mmHg 60%
07:00 +3°C° 0 mm 2 m/s 721 mmHg 60%
08:00 +4°C° 0 mm 2 m/s 721 mmHg 61%
09:00 +5°C° 0 mm 2 m/s 721 mmHg 61%
10:00 +6°C° 0 mm 2 m/s 721 mmHg 62%
11:00 +8°C° 0 mm 2 m/s 720 mmHg 63%
12:00 +10°C° 0 mm 3 m/s 720 mmHg 64%
13:00 +10°C° 0 mm 3 m/s 720 mmHg 67%
14:00 +10°C° 0 mm 3 m/s 719 mmHg 71%
15:00 +10°C° 0 mm 3 m/s 718 mmHg 74%
16:00 +8°C° 0 mm 3 m/s 718 mmHg 76%
17:00 +5°C° 0 mm 4 m/s 718 mmHg 78%
18:00 +3°C° 0 mm 4 m/s 718 mmHg 80%
19:00 +3°C° 0 mm 4 m/s 718 mmHg 77%
20:00 +3°C° 0 mm 4 m/s 717 mmHg 74%
21:00 +3°C° 0 mm 4 m/s 717 mmHg 72%
22:00 +3°C° 0 mm 4 m/s 716 mmHg 71%
23:00 +3°C° 0 mm 4 m/s 716 mmHg 71%

20 Janeiro, Quarta-feira

Tempo Temperatura Precipitação Vento Pressão Humidade
00:00 +3°C° 0 mm 4 m/s 715 mmHg 70%
01:00 +3°C° 0 mm 4 m/s 715 mmHg 70%
02:00 +3°C° 0 mm 4 m/s 714 mmHg 70%
03:00 +3°C° 0 mm 4 m/s 714 mmHg 71%
04:00 +3°C° 0 mm 4 m/s 713 mmHg 71%
05:00 +3°C° 0 mm 4 m/s 713 mmHg 70%
06:00 +3°C° 0 mm 4 m/s 712 mmHg 70%
07:00 +4°C° 0 mm 4 m/s 712 mmHg 69%
08:00 +4°C° 0 mm 4 m/s 712 mmHg 68%
09:00 +5°C° 0 mm 4 m/s 711 mmHg 66%
10:00 +7°C° 0 mm 3 m/s 711 mmHg 65%
11:00 +8°C° 0 mm 3 m/s 711 mmHg 65%
12:00 +9°C° 0 mm 3 m/s 710 mmHg 64%
13:00 +9°C° 0 mm 3 m/s 710 mmHg 67%
14:00 +9°C° 0 mm 3 m/s 709 mmHg 70%
15:00 +9°C° 0 mm 2 m/s 709 mmHg 73%
16:00 +8°C° 0 mm 3 m/s 708 mmHg 74%
17:00 +8°C° 0 mm 3 m/s 708 mmHg 74%
18:00 +7°C° 0 mm 3 m/s 708 mmHg 75%
19:00 +7°C° 0 mm 3 m/s 709 mmHg 75%
20:00 +7°C° 0 mm 3 m/s 709 mmHg 75%
21:00 +7°C° 0 mm 3 m/s 709 mmHg 76%
22:00 +7°C° 0 mm 2 m/s 709 mmHg 76%
23:00 +6°C° 0 mm 2 m/s 709 mmHg 76%

21 Janeiro, Quinta-feira

Tempo Temperatura Precipitação Vento Pressão Humidade
00:00 +6°C° 0 mm 2 m/s 710 mmHg 76%
01:00 +6°C° 0 mm 2 m/s 710 mmHg 77%
02:00 +7°C° 0 mm 1 m/s 710 mmHg 77%
03:00 +6°C° 0 mm 1 m/s 710 mmHg 78%
04:00 +6°C° 0 mm 1 m/s 711 mmHg 79%
05:00 +6°C° 0 mm 1 m/s 711 mmHg 81%
06:00 +6°C° 0 mm 1 m/s 711 mmHg 82%
07:00 +6°C° 0 mm 1 m/s 712 mmHg 81%
08:00 +7°C° 0 mm 1 m/s 712 mmHg 81%
09:00 +8°C° 0 mm 1 m/s 713 mmHg 80%
10:00 +8°C° 0 mm 1 m/s 713 mmHg 81%
11:00 +9°C° 0 mm 1 m/s 713 mmHg 81%
12:00 +10°C° 0 mm 1 m/s 713 mmHg 82%
13:00 +9°C° 0 mm 2 m/s 712 mmHg 81%
14:00 +9°C° 0 mm 2 m/s 711 mmHg 81%
15:00 +9°C° 0 mm 3 m/s 711 mmHg 80%
16:00 +8°C° 0 mm 3 m/s 710 mmHg 81%
17:00 +8°C° 0 mm 3 m/s 710 mmHg 82%
18:00 +7°C° 0 mm 3 m/s 709 mmHg 83%
19:00 +7°C° 0.1 mm 3 m/s 709 mmHg 82%
20:00 +7°C° 0.1 mm 3 m/s 708 mmHg 81%
21:00 +7°C° 0.1 mm 2 m/s 708 mmHg 80%
22:00 +7°C° 0.1 mm 3 m/s 708 mmHg 81%
23:00 +7°C° 0.1 mm 3 m/s 707 mmHg 81%
Mostrar mais

Necessitamos do seu Consentimento

A Meteoprog e os seus Fornecedores de Serviços podem armazenar e aceder a dados pessoais como cookies, identificadores do dispositivo ou outras tecnologias semelhantes existentes no seu dispositivo e processar estes dados para personalizar conteúdos e anúncios, assim como funcionalidades nas redes sociais e análise de tráfego.

  • Armazenar e/ou aceder a informações no seu dispositivo

    Os cookies, identificadores do dispositivo ou outras informações podem ser armazenados ou acedidos no seu dispositivo, para os fins acima indicados.

  • Anúncios e conteúdos personalizados, medição de anúncios e conteúdos, dados sobre o público-alvo e desenvolvimento de produtos

    Os anúncios e os conteúdos podem ser personalizados com base num perfil. Podem ser adicionados dados adicionais para uma maior personalização dos anúncios e dos conteúdos. A eficácia dos anúncios e dos conteúdos pode ser medida. Podem ser obtidas informações sobre o público que visualizou os anúncios e os conteúdos. Estes dados podem ser usados para desenvolver ou melhorar sistemas, softwares ou a experiência do utilizador.

Ao clicar em "Eu concordo”, permitirá o uso de cookies, identificadores do dispositivo e web beacons mencionados ou outras tecnologias semelhantes. As configurações do navegador do seu dispositivo podem ser alteradas.

Para certos fins, podem ser invocados interesses legítimos ao invés de consentimento. Pode ler mais informação sobre este assunto na nossa Política de Privacidade e Cookies.